Home   Weather   San Buenaventura   Past weeks
Flag for USA

Past Weather in San Buenaventura, California, USA — Yesterday and Last 2 Weeks

Now
58 °F

Passing clouds.


Feels Like: 58 °F
Forecast: 68 / 55 °F
Wind: 3 mph from East

Location: Oxnard Airport

Current Time: Oct 14, 2019 at 1:01:41 am

Latest Report: Oct 13, 2019 at 11:51 pm


Visibility: 10 mi

Pressure: 29.88 "Hg

Humidity: 81%

Dew Point: 52 °F

Location of San BuenaventuraLocation

Past Weather in San Buenaventura — Graph

°F

San Buenaventura Temperature Yesterday

Maximum temperature yesterday: 69 °F (at 11:51 am)
Minimum temperature yesterday: 53 °F (at 6:51 am)
Average temperature yesterday: 62 °F

High & Low Weather Summary for the Past Weeks

 TemperatureHumidityPressure
High87 °F (Oct 11, 1:51 pm)90% (Oct 8, 1:51 am)30.05 "Hg (Oct 8, 1:51 am)
Low52 °F (Oct 1, 4:51 am)3% (Oct 10, 4:51 pm)29.78 "Hg (Sep 28, 11:51 pm)
Average65 °F58%29.90 "Hg
* Reported Sep 28 11:51 pm — Oct 13 11:51 pm, San Buenaventura. Weather by CustomWeather, © 2019

Note: Actual official high and low records may vary slightly from our data, if they occured in-between our weather recording intervals... More about our weather records

Advertising

San Buenaventura Weather History for the Previous 24 Hours

Scroll right to see more
 ConditionsComfort  
Time TempWeatherWind HumidityBarometerVisibility
11:51 pm
Sun, Oct 13
58 °FPassing clouds.3 mph81%29.88 "Hg10 mi
11:17 pm60 °FPassing clouds.3 mph80%29.88 "Hg10 mi
10:51 pm61 °FOvercast.No wind81%29.87 "Hg10 mi
9:51 pm61 °FPassing clouds.No wind87%29.87 "Hg8 mi
8:51 pm62 °FPassing clouds.No wind86%29.85 "Hg10 mi
8:24 pm63 °FPassing clouds.No wind84%29.85 "Hg10 mi
7:51 pm62 °FPassing clouds.3 mph83%29.85 "Hg10 mi
7:29 pm63 °FPassing clouds.No wind84%29.84 "Hg10 mi
6:51 pm65 °FClear.No wind81%29.83 "Hg10 mi
5:51 pm65 °FSunny.5 mph76%29.83 "Hg10 mi
4:51 pm67 °FSunny.6 mph63%29.83 "Hg10 mi
3:51 pm68 °FSunny.7 mph63%29.84 "Hg10 mi
2:51 pm69 °FSunny.10 mph59%29.83 "Hg10 mi
1:51 pm69 °FSunny.9 mph57%29.84 "Hg10 mi
12:51 pm69 °FSunny.8 mph59%29.85 "Hg10 mi
11:51 am69 °FSunny.7 mph57%29.87 "Hg10 mi
10:51 am67 °FSunny.8 mph66%29.88 "Hg10 mi
9:51 am66 °FSunny.No wind45%29.87 "Hg10 mi
8:51 am62 °FSunny.5 mph32%29.86 "Hg10 mi
7:51 am55 °FSunny.6 mph35%29.84 "Hg10 mi
6:51 am53 °FClear.3 mph34%29.84 "Hg10 mi
5:51 am54 °FClear.5 mph34%29.83 "Hg10 mi
4:51 am54 °FClear.3 mph37%29.83 "Hg10 mi
3:51 am55 °FClear.3 mph39%29.83 "Hg10 mi
2:51 am55 °FClear.3 mph40%29.84 "Hg10 mi
1:51 am56 °FClear.5 mph40%29.84 "Hg10 mi
Weather by CustomWeather, © 2019

See weather overview